This demonstration page uses our WeatherBlox Daily Observations layout. Learn more.

Left ArrowRight Arrow

39.51506, -84.39828

Hourly Observations for January 8, 2015

Temp ( °F °C ) Dew Point ( °F °C ) Humidity (%) Winds ( mph kmh ) Pressure ( in mb ) Visibility ( mi km ) Precip ( " mm )
12:15 am 00:15 undefined N/A N/A N/A undefined N/A N/A N/A 0.00 0.00
12:35 am 00:35 undefined N/A N/A N/A undefined N/A N/A N/A 0.00 0.00
12:55 am 00:55 undefined N/A N/A N/A undefined N/A N/A N/A 0.00 0.00
1:15 am 01:15 undefined N/A N/A N/A undefined N/A N/A N/A 0.00 0.00
1:35 am 01:35 undefined N/A N/A N/A undefined N/A N/A N/A 0.00 0.00
1:55 am 01:55 undefined N/A N/A N/A undefined N/A N/A N/A 0.00 0.00
2:15 am 02:15 undefined N/A N/A N/A undefined N/A N/A N/A 0.00 0.00
2:35 am 02:35 undefined N/A N/A N/A undefined N/A N/A N/A 0.00 0.00
2:55 am 02:55 undefined N/A N/A N/A undefined N/A N/A N/A 0.00 0.00
3:15 am 03:15 undefined N/A N/A N/A undefined N/A N/A N/A 0.00 0.00
3:35 am 03:35 undefined N/A N/A N/A undefined N/A N/A N/A 0.00 0.00
3:55 am 03:55 undefined N/A N/A N/A undefined N/A N/A 10 16 0.00 0.00
4:15 am 04:15 undefined N/A N/A N/A undefined N/A N/A N/A 0.00 0.00
4:35 am 04:35 undefined N/A N/A N/A undefined N/A N/A N/A 0.00 0.00
4:55 am 04:55 undefined N/A N/A N/A undefined N/A N/A N/A 0.00 0.00
5:15 am 05:15 undefined N/A N/A N/A undefined N/A N/A N/A 0.00 0.00
5:35 am 05:35 undefined N/A N/A N/A undefined N/A N/A N/A 0.00 0.00
5:55 am 05:55 undefined N/A N/A N/A undefined N/A N/A N/A 0.00 0.00
6:15 am 06:15 undefined N/A N/A N/A undefined N/A N/A 10 16 0.00 0.00
6:35 am 06:35 undefined N/A N/A N/A undefined N/A N/A N/A 0.00 0.00
6:55 am 06:55 undefined N/A N/A N/A undefined N/A N/A N/A 0.00 0.00
7:15 am 07:15 undefined N/A N/A N/A undefined N/A N/A N/A 0.00 0.00
7:35 am 07:35 undefined N/A N/A N/A undefined N/A N/A N/A 0.00 0.00
7:55 am 07:55 undefined N/A N/A N/A undefined N/A N/A N/A 0.00 0.00
8:15 am 08:15 undefined N/A N/A N/A undefined N/A N/A N/A 0.00 0.00
8:35 am 08:35 undefined N/A N/A N/A undefined N/A N/A N/A 0.00 0.00
8:55 am 08:55 undefined N/A N/A N/A undefined N/A N/A N/A 0.00 0.00
9:15 am 09:15 undefined N/A N/A N/A undefined N/A N/A N/A 0.00 0.00
9:35 am 09:35 undefined N/A N/A N/A undefined N/A N/A N/A 0.00 0.00
9:55 am 09:55 undefined N/A N/A N/A SSW 13 20 N/A N/A 0.00 0.00
10:15 am 10:15 undefined N/A N/A N/A SW 13 20 N/A N/A 0.00 0.00
10:35 am 10:35 undefined N/A N/A N/A SW 13 20 N/A N/A 0.00 0.00
10:55 am 10:55 Sunny 7 -14 -5 -20.5 58 58 SSW 13 20 30.62 1037 N/A 0.00 0.00
11:15 am 11:15 Sunny N/A N/A N/A S 10 17 N/A N/A 0.00 0.00
11:35 am 11:35 Sunny N/A N/A N/A SSW 10 17 N/A 10 16 0.00 0.00
11:55 am 11:55 Sunny N/A N/A N/A SSW 9 15 N/A 10 16 0.00 0.00
12:15 pm 12:15 Sunny 9 -12.6 -5 -20.5 52 52 SSW 14 22 N/A 10 16 0.00 0.00
12:35 pm 12:35 Sunny 11 -11.9 -5 -20.3 50 50 undefined N/A 30.48 1032 10 16 0.00 0.00
12:55 pm 12:55 Sunny N/A N/A N/A SW 16 26 N/A 10 16 0.00 0.00
1:15 pm 13:15 Sunny 12 -11.2 -6 -21 45 45 SSW 16 26 30.45 1031 10 16 0.00 0.00
1:35 pm 13:35 Sunny 12 -11.2 -6 -21 45 45 SSW 16 26 30.42 1030 10 16 0.00 0.00
1:55 pm 13:55 Sunny 14 -9.9 -4 -20 44 44 S 13 20 30.39 1029 10 16 0.00 0.00
2:15 pm 14:15 Sunny 14 -9.8 -4 -19.9 44 44 S 10 17 30.36 1028 10 16 0.00 0.00
2:35 pm 14:35 Sunny 14 -9.8 -4 -20.1 43 43 SSW 15 24 30.36 1028 10 16 0.00 0.00
2:55 pm 14:55 Sunny 14 -9.8 -5 -20.3 42 42 SW 16 26 30.36 1028 10 16 0.00 0.00
3:15 pm 15:15 Sunny 14 -9.8 -5 -20.3 42 42 S 13 20 30.36 1028 10 16 0.00 0.00
3:35 pm 15:35 Sunny 16 -9.1 -3 -19.3 44 44 SSW 13 20 30.33 1027 10 16 0.00 0.00
3:55 pm 15:55 Sunny 17 -8.5 -2 -19 43 43 SSW 17 28 30.33 1027 10 16 0.00 0.00
4:15 pm 16:15 Sunny 17 -8.5 -3 -19.2 42 42 SSW 17 28 30.30 1026 10 16 0.00 0.00
4:55 pm 16:55 Mostly Cloudy 17 -8.5 -3 -19.4 41 41 SSW 17 28 30.27 1025 10 16 0.00 0.00
5:15 pm 17:15 Cloudy 17 -8.5 -3 -19.3 42 42 SSW 18 30 30.24 1024 10 16 0.00 0.00
5:35 pm 17:35 Cloudy 17 -8.2 -2 -18.9 42 42 SSW 15 24 30.24 1024 10 16 0.00 0.00
5:55 pm 17:55 Cloudy 18 -7.9 -2 -19.1 41 41 SSW 15 24 30.21 1023 10 16 0.00 0.00
6:15 pm 18:15 Cloudy 19 -7 -1 -18.2 41 41 S 14 22 30.18 1022 10 16 0.00 0.00
6:35 pm 18:35 Cloudy 19 -7 -1 -18.3 40 40 SSW 17 28 30.18 1022 10 16 0.00 0.00
6:55 pm 18:55 Cloudy 19 -7 -1 -18.6 39 39 SSW 14 22 30.15 1021 10 16 0.00 0.00
7:15 pm 19:15 Cloudy 19 -7 -1 -18.1 41 41 SSW 17 28 30.15 1021 10 16 0.00 0.00
7:35 pm 19:35 Cloudy 19 -7 -1 -18.2 41 41 SSW 15 24 30.12 1020 10 16 0.00 0.00
7:55 pm 19:55 Cloudy 20 -6.6 -1 -18.5 39 39 SSW 18 30 30.12 1020 10 16 0.00 0.00
8:15 pm 20:15 Cloudy 20 -6.6 -1 -18.1 40 40 SSW 21 33 30.09 1019 10 16 0.00 0.00
8:35 pm 20:35 Cloudy 21 -6.3 1 -17.1 42 42 SSW 16 26 30.09 1019 10 16 0.00 0.00
8:55 pm 20:55 Cloudy 21 -6.1 1 -17.5 40 40 SW 15 24 30.12 1020 10 16 0.00 0.00
9:15 pm 21:15 Cloudy with Light Snow 21 -6.3 4 -15.5 48 48 SW 16 26 30.09 1019 5 8 0.00 0.00
9:35 pm 21:35 Cloudy 22 -5.8 4 -15.6 46 46 SW 21 33 30.09 1019 10 16 0.00 0.00
9:55 pm 21:55 Cloudy with Light Snow 21 -6.3 9 -12.8 60 60 SW 18 30 30.06 1018 4 6 0.00 0.00
10:15 pm 22:15 Cloudy 22 -5.7 8 -13.5 55 55 SW 20 31 30.06 1018 10 16 0.00 0.00
10:35 pm 22:35 Cloudy 22 -5.6 7 -14.1 52 52 SW 17 28 30.06 1018 10 16 0.00 0.00
10:55 pm 22:55 Cloudy 23 -5.2 6 -14.5 48 48 SW 15 24 30.03 1017 10 16 0.00 0.00
11:15 pm 23:15 Cloudy 24 -4.5 4 -15.3 43 43 SW 20 31 30.03 1017 10 16 0.00 0.00
11:35 pm 23:35 Cloudy 24 -4.2 3 -15.9 40 40 SW 18 30 30.03 1017 10 16 0.00 0.00
11:55 pm 23:55 Cloudy 24 -4.2 2 -16.6 38 38 WSW 17 28 30.03 1017 10 16 0.00 0.00

Powered by AerisWeather